Location: Coupvray
(48.8929°N, 2.7967°E)
Time: 21:47:26
(UTC+00:00)

Cosmos 1241 Rocket - Pass Details

Date: 30 October 2020
Orbit: 929 x 1018 km, 65.8° (Epoch: 27 November)

Event Time Altitude Azimuth Distance (km) Brightness Sun altitude
Rises 21:56:09 0° 318° (NW) 3,728 8.2 -50.0°
Reaches altitude 10° 21:59:14 10° 331° (NNW) 2,789 7.4 -50.3°
Enters shadow 21:59:44 12° 334° (NNW) 2,655 7.2 -50.4°
